| time (UTC) | temp F | wind direction | speed MPH | gust MPH | rain 1hr in | rain 24hr in | rain mn in | humidity % | barometer mb |
| 20260831170923 | 57 | 157 | 9.0 | 18.0 | 0.00 | 0.00 | 0.00 | 83 | 1021.9 |
| 20260831170002 | 57 | 157 | 10.0 | 20.0 | 0.00 | 0.00 | 0.00 | 83 | 1022.0 |
| 20260831165402 | 57 | 157 | 8.0 | 20.0 | 0.00 | 0.00 | 0.00 | 84 | 1022.0 |
| 20260831164502 | 56 | 157 | 7.0 | 14.0 | 0.00 | 0.00 | 0.00 | 84 | 1022.2 |
| 20260831163602 | 56 | 157 | 8.0 | 15.0 | 0.00 | 0.00 | 0.00 | 84 | 1022.4 |
| 20260831162723 | 56 | 157 | 8.0 | 15.0 | 0.00 | 0.00 | 0.00 | 84 | 1022.5 |
| 20260831161802 | 56 | 157 | 9.0 | 17.0 | 0.00 | 0.00 | 0.00 | 84 | 1022.6 |
| 20260831160902 | 57 | 157 | 9.0 | 21.0 | 0.00 | 0.00 | 0.00 | 85 | 1022.8 |
| 20260831160002 | 57 | 157 | 7.0 | 18.0 | 0.00 | 0.00 | 0.00 | 85 | 1023.0 |
| 20260831155402 | 56 | 157 | 6.0 | 15.0 | 0.00 | 0.00 | 0.00 | 85 | 1023.1 |
| 20260831154502 | 56 | 157 | 7.0 | 17.0 | 0.00 | 0.00 | 0.00 | 85 | 1023.2 |
| 20260831153602 | 56 | 157 | 6.0 | 13.0 | 0.00 | 0.00 | 0.00 | 84 | 1023.4 |
| 20260831152702 | 56 | 157 | 6.0 | 13.0 | 0.00 | 0.00 | 0.00 | 84 | 1023.4 |
| 20260831151802 | 56 | 157 | 6.0 | 14.0 | 0.00 | 0.00 | 0.00 | 84 | 1023.5 |
| 20260831150902 | 56 | 157 | 5.0 | 12.0 | 0.00 | 0.00 | 0.00 | 83 | 1023.6 |
| 20260831150002 | 56 | 157 | 5.0 | 11.0 | 0.00 | 0.00 | 0.00 | 83 | 1023.7 |
| 20260831145402 | 56 | 157 | 5.0 | 9.0 | 0.00 | 0.00 | 0.00 | 82 | 1023.7 |
| 20260831144502 | 56 | 157 | 4.0 | 11.0 | 0.00 | 0.00 | 0.00 | 82 | 1024.0 |
| 20260831143623 | 56 | 157 | 4.0 | 10.0 | 0.00 | 0.00 | 0.00 | 82 | 1024.2 |
| 20260831142702 | 55 | 157 | 3.0 | 10.0 | 0.00 | 0.00 | 0.00 | 82 | 1024.3 |
| 20260831141802 | 55 | 157 | 3.0 | 9.0 | 0.00 | 0.00 | 0.00 | 83 | 1024.5 |
| 20260831140902 | 54 | 157 | 2.0 | 6.0 | 0.00 | 0.00 | 0.00 | 83 | 1024.7 |
| 20260831140024 | 54 | 157 | 2.0 | 5.0 | 0.00 | 0.00 | 0.00 | 83 | 1024.8 |
| 20260831135402 | 54 | 157 | 2.0 | 4.0 | 0.00 | 0.00 | 0.00 | 83 | 1024.9 |
| 20260831134502 | 54 | 157 | 2.0 | 6.0 | 0.00 | 0.00 | 0.00 | 84 | 1025.0 |
| 20260831133602 | 54 | 157 | 2.0 | 6.0 | 0.00 | 0.00 | 0.00 | 84 | 1025.1 |
| 20260831132702 | 53 | 157 | 2.0 | 5.0 | 0.00 | 0.00 | 0.00 | 84 | 1025.3 |
| 20260831131802 | 53 | 157 | 2.0 | 5.0 | 0.00 | 0.00 | 0.00 | 85 | 1025.5 |
| 20260831130902 | 53 | 157 | 1.0 | 4.0 | 0.00 | 0.00 | 0.00 | 85 | 1025.6 |
| 20260831130002 | 53 | 157 | 2.0 | 3.0 | 0.00 | 0.00 | 0.00 | 85 | 1025.6 |
| 20260831125402 | 53 | 157 | 1.0 | 3.0 | 0.00 | 0.00 | 0.00 | 85 | 1025.7 |
| 20260831124502 | 53 | 157 | 1.0 | 3.0 | 0.00 | 0.00 | 0.00 | 86 | 1025.8 |
| 20260831123602 | 53 | 157 | 1.0 | 3.0 | 0.00 | 0.00 | 0.00 | 86 | 1025.9 |
| 20260831122702 | 53 | 157 | 1.0 | 3.0 | 0.00 | 0.00 | 0.00 | 87 | 1026.0 |
| 20260831121802 | 53 | 157 | 1.0 | 3.0 | 0.00 | 0.00 | 0.00 | 87 | 1025.9 |
| 20260831120902 | 53 | 157 | 1.0 | 2.0 | 0.00 | 0.00 | 0.00 | 87 | 1026.0 |
| 20260831120002 | 54 | 157 | 0.0 | 3.0 | 0.00 | 0.00 | 0.00 | 87 | 1026.0 |
| 20260831115402 | 54 | 157 | 0.0 | 3.0 | 0.00 | 0.00 | 0.00 | 87 | 1026.0 |
| 20260831114502 | 54 | 157 | 1.0 | 3.0 | 0.00 | 0.00 | 0.00 | 87 | 1026.0 |
| 20260831113602 | 54 | 157 | 1.0 | 3.0 | 0.00 | 0.00 | 0.00 | 87 | 1026.2 |
| 20260831112702 | 54 | 157 | 0.0 | 3.0 | 0.00 | 0.00 | 0.00 | 87 | 1026.2 |
| 20260831111802 | 54 | 0 | 0.0 | 3.0 | 0.00 | 0.00 | 0.00 | 87 | 1026.2 |
| 20260831110902 | 54 | 0 | 0.0 | 2.0 | 0.00 | 0.00 | 0.00 | 87 | 1026.3 |
| 20260831110002 | 54 | 0 | 0.0 | 0.0 | 0.00 | 0.00 | 0.00 | 88 | 1026.4 |
| 20260831105402 | 54 | 0 | 0.0 | 0.0 | 0.00 | 0.00 | 0.00 | 88 | 1026.5 |
| 20260831104502 | 54 | 0 | 0.0 | 1.0 | 0.00 | 0.00 | 0.00 | 87 | 1026.6 |
| 20260831103602 | 54 | 0 | 0.0 | 1.0 | 0.00 | 0.00 | 0.00 | 88 | 1026.5 |
| 20260831102702 | 54 | 0 | 0.0 | 0.0 | 0.00 | 0.00 | 0.00 | 88 | 1026.5 |
| 20260831101802 | 54 | 0 | 0.0 | 0.0 | 0.00 | 0.00 | 0.00 | 87 | 1026.6 |
| 20260831095424 | 55 | 0 | 0.0 | 0.0 | 0.00 | 0.00 | 0.00 | 87 | 1026.7 |
| 20260831094503 | 55 | 0 | 0.0 | 0.0 | 0.00 | 0.00 | 0.00 | 86 | 1026.8 |
| 20260831093603 | 55 | 0 | 0.0 | 0.0 | 0.00 | 0.00 | 0.00 | 86 | 1026.9 |
| 20260831092703 | 55 | 0 | 0.0 | 0.0 | 0.00 | 0.00 | 0.00 | 85 | 1026.9 |
| 20260831091803 | 55 | 0 | 0.0 | 0.0 | 0.00 | 0.00 | 0.00 | 84 | 1027.0 |
| 20260831090924 | 56 | 0 | 0.0 | 0.0 | 0.00 | 0.00 | 0.00 | 83 | 1027.2 |
| 20260831090024 | 56 | 0 | 0.0 | 1.0 | 0.00 | 0.00 | 0.00 | 82 | 1027.2 |
| 20260831085403 | 56 | 0 | 0.0 | 2.0 | 0.00 | 0.00 | 0.00 | 82 | 1027.2 |
| 20260831084503 | 57 | 0 | 0.0 | 0.0 | 0.00 | 0.00 | 0.00 | 81 | 1027.2 |
| 20260831083603 | 57 | 0 | 0.0 | 2.0 | 0.00 | 0.00 | 0.00 | 81 | 1027.3 |
| 20260831082703 | 58 | 0 | 0.0 | 0.0 | 0.00 | 0.00 | 0.00 | 79 | 1027.3 |
| 20260831081803 | 58 | 157 | 0.0 | 3.0 | 0.00 | 0.00 | 0.00 | 78 | 1027.2 |
| 20260831080903 | 59 | 157 | 1.0 | 4.0 | 0.00 | 0.00 | 0.00 | 77 | 1027.2 |
| 20260831080024 | 60 | 157 | 1.0 | 2.0 | 0.00 | 0.00 | 0.00 | 76 | 1027.2 |
| 20260831075424 | 60 | 157 | 1.0 | 3.0 | 0.00 | 0.00 | 0.00 | 75 | 1027.3 |
| 20260831074503 | 61 | 157 | 0.0 | 2.0 | 0.00 | 0.00 | 0.00 | 74 | 1027.3 |
| 20260831073603 | 62 | 0 | 0.0 | 2.0 | 0.00 | 0.00 | 0.00 | 73 | 1027.3 |
| 20260831072703 | 62 | 0 | 0.0 | 2.0 | 0.00 | 0.00 | 0.00 | 72 | 1027.2 |
| 20260831071803 | 63 | 157 | 0.0 | 2.0 | 0.00 | 0.00 | 0.00 | 71 | 1027.2 |
| 20260831070903 | 63 | 157 | 2.0 | 3.0 | 0.00 | 0.00 | 0.00 | 71 | 1027.3 |
| 20260831070003 | 64 | 157 | 2.0 | 4.0 | 0.00 | 0.00 | 0.00 | 70 | 1027.4 |
| 20260831065403 | 64 | 157 | 3.0 | 5.0 | 0.00 | 0.00 | 0.00 | 69 | 1027.4 |
| 20260831064524 | 65 | 146 | 2.0 | 5.0 | 0.00 | 0.00 | 0.00 | 68 | 1027.4 |
| 20260831063603 | 66 | 122 | 1.0 | 4.0 | 0.00 | 0.00 | 0.00 | 67 | 1027.5 |
| 20260831062724 | 66 | 110 | 1.0 | 4.0 | 0.00 | 0.00 | 0.00 | 66 | 1027.6 |
| 20260831061824 | 67 | 113 | 1.0 | 4.0 | 0.00 | 0.00 | 0.00 | 65 | 1027.6 |
| 20260831060903 | 67 | 107 | 1.0 | 4.0 | 0.00 | 0.00 | 0.00 | 64 | 1027.6 |
| 20260831060003 | 67 | 119 | 1.0 | 4.0 | 0.00 | 0.00 | 0.00 | 64 | 1027.7 |
| 20260831055403 | 67 | 87 | 1.0 | 4.0 | 0.00 | 0.00 | 0.00 | 64 | 1027.7 |
| 20260831054503 | 67 | 115 | 1.0 | 5.0 | 0.00 | 0.00 | 0.00 | 64 | 1027.7 |
| 20260831053603 | 68 | 272 | 2.0 | 5.0 | 0.00 | 0.00 | 0.00 | 64 | 1027.8 |
| 20260831052703 | 68 | 261 | 2.0 | 5.0 | 0.00 | 0.00 | 0.00 | 64 | 1027.9 |
| 20260831051803 | 68 | 270 | 1.0 | 4.0 | 0.00 | 0.00 | 0.00 | 64 | 1028.0 |
| 20260831050903 | 68 | 216 | 1.0 | 3.0 | 0.00 | 0.00 | 0.00 | 65 | 1028.1 |
| 20260831050003 | 67 | 157 | 1.0 | 4.0 | 0.00 | 0.00 | 0.00 | 65 | 1028.2 |
| 20260831045403 | 67 | 170 | 2.0 | 4.0 | 0.00 | 0.00 | 0.00 | 65 | 1028.3 |
| 20260831044503 | 66 | 221 | 2.0 | 6.0 | 0.00 | 0.00 | 0.00 | 66 | 1028.4 |
| 20260831043603 | 66 | 157 | 2.0 | 4.0 | 0.00 | 0.00 | 0.00 | 67 | 1028.5 |
| 20260831042703 | 66 | 157 | 2.0 | 5.0 | 0.00 | 0.00 | 0.00 | 67 | 1028.7 |
| 20260831041803 | 65 | 157 | 2.0 | 4.0 | 0.00 | 0.00 | 0.00 | 67 | 1028.9 |
| 20260831040903 | 65 | 157 | 2.0 | 4.0 | 0.00 | 0.00 | 0.00 | 68 | 1028.9 |
| 20260831040003 | 65 | 157 | 2.0 | 6.0 | 0.00 | 0.00 | 0.00 | 67 | 1029.0 |
| 20260831035403 | 65 | 157 | 2.0 | 6.0 | 0.00 | 0.00 | 0.00 | 67 | 1029.1 |
| 20260831034524 | 65 | 157 | 2.0 | 4.0 | 0.00 | 0.00 | 0.00 | 68 | 1029.2 |
| 20260831033624 | 64 | 157 | 2.0 | 6.0 | 0.00 | 0.00 | 0.00 | 69 | 1029.4 |
| 20260831032703 | 64 | 157 | 2.0 | 6.0 | 0.00 | 0.00 | 0.00 | 69 | 1029.5 |
| 20260831031803 | 64 | 157 | 2.0 | 8.0 | 0.00 | 0.00 | 0.00 | 68 | 1029.7 |
| 20260831030924 | 64 | 157 | 2.0 | 6.0 | 0.00 | 0.00 | 0.00 | 67 | 1029.9 |
| 20260831030024 | 65 | 157 | 1.0 | 5.0 | 0.00 | 0.00 | 0.00 | 68 | 1030.0 |
| 20260831025403 | 64 | 157 | 1.0 | 4.0 | 0.00 | 0.00 | 0.00 | 68 | 1030.2 |
| 20260831024503 | 63 | 157 | 2.0 | 3.0 | 0.00 | 0.00 | 0.00 | 69 | 1030.2 |
| 20260831023603 | 62 | 157 | 2.0 | 5.0 | 0.00 | 0.00 | 0.00 | 69 | 1030.4 |
| 20260831022703 | 62 | 157 | 2.0 | 5.0 | 0.00 | 0.00 | 0.00 | 70 | 1030.6 |
| 20260831021803 | 61 | 157 | 2.0 | 4.0 | 0.00 | 0.00 | 0.00 | 72 | 1030.9 |
| 20260831020903 | 59 | 157 | 2.0 | 5.0 | 0.00 | 0.00 | 0.00 | 74 | 1031.0 |
| 20260831020003 | 59 | 157 | 2.0 | 5.0 | 0.00 | 0.00 | 0.00 | 75 | 1031.1 |
| 20260831015403 | 58 | 157 | 2.0 | 6.0 | 0.00 | 0.00 | 0.00 | 75 | 1031.2 |
| 20260831014503 | 58 | 157 | 2.0 | 4.0 | 0.00 | 0.00 | 0.00 | 77 | 1031.3 |
| 20260831013624 | 57 | 157 | 2.0 | 5.0 | 0.00 | 0.00 | 0.00 | 79 | 1031.4 |
| 20260831012703 | 57 | 157 | 2.0 | 4.0 | 0.00 | 0.00 | 0.00 | 79 | 1031.4 |
| 20260831011824 | 56 | 157 | 2.0 | 4.0 | 0.00 | 0.00 | 0.00 | 82 | 1031.5 |
| 20260831010903 | 55 | 157 | 1.0 | 4.0 | 0.00 | 0.00 | 0.00 | 82 | 1031.6 |
| 20260831010003 | 54 | 157 | 1.0 | 3.0 | 0.00 | 0.00 | 0.00 | 84 | 1031.8 |
| 20260831005403 | 54 | 157 | 1.0 | 3.0 | 0.00 | 0.00 | 0.00 | 84 | 1031.8 |
| 20260831004524 | 53 | 157 | 1.0 | 3.0 | 0.00 | 0.00 | 0.00 | 86 | 1032.0 |
| 20260831003603 | 52 | 157 | 1.0 | 4.0 | 0.00 | 0.00 | 0.00 | 86 | 1032.0 |
| 20260831002703 | 52 | 157 | 1.0 | 3.0 | 0.00 | 0.00 | 0.00 | 87 | 1032.0 |
| 20260831001803 | 52 | 157 | 1.0 | 4.0 | 0.00 | 0.00 | 0.00 | 88 | 1032.1 |
| 20260831000903 | 51 | 157 | 2.0 | 5.0 | 0.00 | 0.00 | 0.00 | 88 | 1032.1 |
| 20260831000003 | 51 | 157 | 0.0 | 5.0 | 0.00 | 0.00 | 0.00 | 88 | 1032.1 |
| 20260830235424 | 51 | 0 | 0.0 | 3.0 | 0.00 | 0.00 | 0.00 | 89 | 1032.2 |
| 20260830234524 | 51 | 157 | 0.0 | 2.0 | 0.00 | 0.00 | 0.00 | 89 | 1032.1 |
| 20260830233603 | 51 | 157 | 1.0 | 3.0 | 0.00 | 0.00 | 0.00 | 89 | 1032.1 |
| 20260830232703 | 51 | 157 | 1.0 | 4.0 | 0.00 | 0.00 | 0.00 | 90 | 1032.1 |
| 20260830231803 | 51 | 157 | 1.0 | 5.0 | 0.00 | 0.00 | 0.00 | 90 | 1032.1 |
| 20260830230903 | 51 | 157 | 0.0 | 3.0 | 0.00 | 0.00 | 0.00 | 90 | 1032.1 |
| 20260830230003 | 51 | 157 | 1.0 | 2.0 | 0.00 | 0.00 | 0.00 | 90 | 1032.1 |
| 20260830225403 | 51 | 157 | 1.0 | 4.0 | 0.00 | 0.00 | 0.00 | 90 | 1032.1 |
| 20260830224503 | 51 | 157 | 0.0 | 3.0 | 0.00 | 0.00 | 0.00 | 90 | 1032.1 |
| 20260830223623 | 51 | 157 | 1.0 | 1.0 | 0.00 | 0.00 | 0.00 | 90 | 1032.2 |
| 20260830222703 | 50 | 157 | 1.0 | 3.0 | 0.00 | 0.00 | 0.00 | 90 | 1032.2 |
| 20260830221824 | 50 | 157 | 0.0 | 2.0 | 0.00 | 0.00 | 0.00 | 90 | 1032.1 |
| 20260830220924 | 50 | 157 | 1.0 | 3.0 | 0.00 | 0.00 | 0.00 | 90 | 1032.1 |
| 20260830220003 | 49 | 157 | 1.0 | 2.0 | 0.00 | 0.00 | 0.00 | 90 | 1032.2 |
| 20260830215402 | 49 | 157 | 1.0 | 4.0 | 0.00 | 0.00 | 0.00 | 90 | 1032.1 |
| 20260830214523 | 49 | 157 | 1.0 | 3.0 | 0.00 | 0.00 | 0.00 | 90 | 1032.1 |
| 20260830213602 | 49 | 0 | 2.0 | 2.0 | 0.00 | 0.00 | 0.00 | 90 | 1031.9 |
| 20260830212703 | 48 | 0 | 0.0 | 0.0 | 0.00 | 0.00 | 0.00 | 90 | 1031.9 |
| 20260830211802 | 48 | 0 | 0.0 | 0.0 | 0.00 | 0.00 | 0.00 | 90 | 1031.8 |
| 20260830210902 | 48 | 0 | 0.0 | 0.0 | 0.00 | 0.00 | 0.00 | 90 | 1031.8 |
| 20260830210024 | 49 | 0 | 0.0 | 0.0 | 0.00 | 0.00 | 0.00 | 89 | 1031.9 |
| 20260830205403 | 49 | 0 | 0.0 | 0.0 | 0.00 | 0.00 | 0.00 | 90 | 1031.8 |
| 20260830204503 | 49 | 0 | 0.0 | 0.0 | 0.00 | 0.00 | 0.00 | 90 | 1031.8 |
| 20260830203602 | 49 | 0 | 0.0 | 0.0 | 0.00 | 0.00 | 0.00 | 90 | 1031.7 |
| 20260830202703 | 49 | 0 | 0.0 | 0.0 | 0.00 | 0.00 | 0.00 | 89 | 1031.8 |
| 20260830201802 | 49 | 0 | 0.0 | 0.0 | 0.00 | 0.00 | 0.00 | 89 | 1031.7 |
| 20260830200902 | 49 | 0 | 1.0 | 1.0 | 0.00 | 0.00 | 0.00 | 89 | 1031.7 |
| 20260830200003 | 49 | 0 | 1.0 | 1.0 | 0.00 | 0.00 | 0.00 | 89 | 1031.8 |
| 20260830195402 | 49 | 0 | 1.0 | 1.0 | 0.00 | 0.00 | 0.00 | 90 | 1031.7 |
| 20260830194502 | 49 | 0 | 0.0 | 0.0 | 0.00 | 0.00 | 0.00 | 90 | 1031.8 |
| 20260830193602 | 49 | 0 | 0.0 | 0.0 | 0.00 | 0.00 | 0.00 | 90 | 1031.8 |
| 20260830192703 | 49 | 0 | 0.0 | 0.0 | 0.00 | 0.00 | 0.00 | 90 | 1031.7 |
| 20260830191802 | 49 | 0 | 0.0 | 0.0 | 0.00 | 0.00 | 0.00 | 90 | 1031.7 |
| 20260830190923 | 49 | 0 | 0.0 | 0.0 | 0.00 | 0.00 | 0.00 | 90 | 1031.6 |
| 20260830190002 | 49 | 0 | 2.0 | 2.0 | 0.00 | 0.00 | 0.00 | 90 | 1031.5 |
| 20260830185402 | 49 | 0 | 0.0 | 0.0 | 0.00 | 0.00 | 0.00 | 90 | 1031.5 |
| 20260830184502 | 49 | 0 | 0.0 | 0.0 | 0.00 | 0.00 | 0.00 | 90 | 1031.6 |
| 20260830183602 | 50 | 0 | 0.0 | 0.0 | 0.00 | 0.00 | 0.00 | 90 | 1031.7 |
| 20260830182702 | 49 | 0 | 0.0 | 0.0 | 0.00 | 0.00 | 0.00 | 90 | 1031.7 |
| 20260830181823 | 49 | 0 | 1.0 | 1.0 | 0.00 | 0.00 | 0.00 | 91 | 1031.7 |
| 20260830180902 | 49 | 157 | 0.0 | 2.0 | 0.00 | 0.00 | 0.00 | 91 | 1031.6 |
| 20260830180002 | 49 | 157 | 0.0 | 4.0 | 0.00 | 0.00 | 0.00 | 91 | 1031.6 |
| 20260830175402 | 49 | 0 | 0.0 | 4.0 | 0.00 | 0.00 | 0.00 | 92 | 1031.7 |
| 20260830174502 | 49 | 0 | 0.0 | 2.0 | 0.00 | 0.00 | 0.00 | 92 | 1031.7 |
| 20260830173623 | 49 | 0 | 0.0 | 0.0 | 0.00 | 0.00 | 0.00 | 92 | 1031.8 |
| 20260830172702 | 49 | 0 | 0.0 | 0.0 | 0.00 | 0.00 | 0.00 | 92 | 1031.8 |
| 20260830171802 | 50 | 0 | 0.0 | 0.0 | 0.00 | 0.00 | 0.00 | 92 | 1031.9 |